[Iaude] MPEC D24: 2024 CF8 [a=2.01,e=0.42,i=5.6,H=24.6]

mpec at cfa.harvard.edu mpec at cfa.harvard.edu
Fri Feb 16 19:57:51 EST 2024


M.P.E.C. 2024-D24                             Issued 2024 February 17, 00:56 UT

     The Minor Planet Electronic Circulars contain information on unusual
         minor planets, routine data on comets and natural satellites,
         and occasional editorial announcements.  They are published
    on behalf of Division F of the International Astronomical Union by the
          Minor Planet Center, Smithsonian Astrophysical Observatory,
                          Cambridge, MA 02138, U.S.A.
			  
             Prepared using the Tamkin Foundation Computer Network

                              MPC at CFA.HARVARD.EDU
            URL https://www.minorplanetcenter.net/    ISSN 1523-6714

                                    2024 CF8                                    


Observations:
     K24C08F  C2024 02 07.29467208 49 57.128+20 21 45.62         22.00GVED024F52
     K24C08F  C2024 02 07.32051908 49 58.230+20 20 49.53         21.50GVED024F52
     K24C08F  C2024 02 07.33344108 49 58.775+20 20 20.75         21.99GVED024F52
     K24C08F  C2024 02 14.34000008 57 13.955+15 48 06.55         21.40GVED024F52
     K24C08F  C2024 02 14.35164308 57 14.539+15 47 39.22         21.99GVED024F52
     K24C08F* C2024 02 15.29319908 58 19.537+15 10 21.75         21.84wXED024F51
     K24C08F  C2024 02 15.30445108 58 20.140+15 09 55.46         21.79wXED024F51
     K24C08F  C2024 02 15.31576508 58 20.739+15 09 28.95         21.65wXED024F51
     K24C08F KC2024 02 16.35875 08 59 30.53 +14 28 03.9          21.5 RVED024691
     K24C08F KC2024 02 16.37363 08 59 31.36 +14 27 28.4          21.8 RVED024691
     K24C08F KC2024 02 16.38851 08 59 32.21 +14 26 52.8          21.6 RVED024691

Observer details:
691 Steward Observatory, Kitt Peak-Spacewatch.  Observer J. V. Scotti.  0.9-m
    f/3 reflector + CCD.
F51 Pan-STARRS 1, Haleakala.  Observers J. Herman, T. Lowe, P. Minguez, A.
    Schultz, I. Smith.  Measurers K. Chambers, T. de Boer, J. Fairlamb, H.
    Gao, M. Huber, C.-C. Lin, E. Magnier, Y. Ramanjooloo, R. Wainscoat, R.
    Weryk.  1.8-m Ritchey-Chretien + CCD.
F52 Pan-STARRS 2, Haleakala.  Observers J. Herman, T. Lowe, P. Minguez, A.
    Schultz, I. Smith.  Measurers K. Chambers, T. de Boer, J. Fairlamb, H.
    Gao, M. Huber, C.-C. Lin, E. Magnier, Y. Ramanjooloo, R. Wainscoat, R.
    Weryk.  1.8-m Ritchey-Chretien + CCD.

Orbital elements:
2024 CF8                                                 Earth MOID = 0.1852 AU
Epoch 2024 Mar. 31.0 TT = JDT 2460400.5                 MPC                     
M  15.48279              (2000.0)            P               Q                  
n   0.34463466     Peri.  182.97493     -0.80345724     -0.59214221             
a   2.0147914      Node   320.50164     +0.54822184     -0.69533095             
e   0.4182741      Incl.    5.57925     +0.23218369     -0.40728672             
P   2.86           H   24.61          G   0.15           U   8                  
Residuals in seconds of arc
240207 F52  0.1+  0.5-    240214 F52  0.0   0.0     240216 691  0.1+  0.3-
240207 F52  0.1-  0.3+    240215 F51  0.0   0.1+    240216 691  0.1+  0.1-
240207 F52  0.0   0.0     240215 F51  0.0   0.0     240216 691  0.2+  0.2+
240214 F52  0.0   0.0     240215 F51  0.1-  0.1-

Ephemeris:
2024 CF8                 a,e,i = 2.01, 0.42, 6                   q = 1.1721
Date    TT    R. A. (2000) Decl.     Delta      r    Elong.  Phase     V
2024 01 18    08 32 28.0 +30 35 53   0.2274  1.2066   167.2    10.4    22.5
...
2024 02 02    08 45 03.5 +23 33 31   0.1956  1.1797   172.8     6.0    21.9
...
2024 02 10    08 52 34.9 +18 38 28   0.1890  1.1732   169.9     8.4    21.9
...
2024 02 16    08 59 06.5 +14 42 33   0.1888  1.1721   166.3    11.5    22.0
2024 02 17    09 00 17.3 +14 03 01   0.1892  1.1722   165.7    12.0    22.1
2024 02 18    09 01 29.7 +13 23 35   0.1897  1.1724   165.0    12.6    22.1
...
2024 02 24    09 09 17.1 +09 32 14   0.1949  1.1756   161.2    15.7    22.3
...
2024 03 03    09 21 00.9 +04 51 04   0.2080  1.1848   156.4    19.6    22.6
...
2024 03 18    09 46 23.5 -01 51 08   0.2506  1.2164   148.7    25.1    23.2

A. U. Tomatic                (C) Copyright 2024 MPC           M.P.E.C. 2024-D24





More information about the Iaude mailing list